Temp
-10 -10 -10 -9 -9 -9 -8 -8 -6 -5 -5 -5 -4 -3 -2 -2 -1 -1 -1 -0 1 1 1 1 2 1 2 2 3 3 4 4 3 3 3 3 3 3 3 3 3 3 3 3 1 1 2 3 3 2 2 2 1 2
-9 -8 -9 -9 -8 -7 -7 -5 -6 -4 -5 -4 -3 -2 -1 -1 -1 -1 -1 -0 1 0 1 1 1 1 1 2 3 3 4 4 4 3 3 3 3 3 3 3 3 2 2 3 2 3 3 2 2 1 2 2 1 1
-8 -7 -7 -6 -5 -5 -5 -4 -4 -3 -3 -3 -2 -1 -1 -1 -1 -1 -1 -0 -0 0 1 1 1 2 2 2 2 3 4 3 4 3 3 3 3 3 3 2 2 3 3 2 2 2 1 1 1 0 0 -0 -0 -0
-5 -5 -5 -5 -4 -4 -4 -3 -3 -2 -2 -1 -1 -1 -1 -1 -1 -1 -1 -1 -0 0 0 0 2 2 2 2 3 3 3 4 4 3 3 3 3 2 2 2 2 2 2 1 1 2 1 0 -0 -1 -0 -0 -1 -1
-5 -5 -4 -3 -3 -3 -3 -3 -2 -1 -1 -1 -1 -0 -0 -1 -1 -1 -1 -0 0 0 0 1 2 2 2 2 3 3 3 3 3 3 3 3 3 2 2 2 2 2 1 1 0 0 0 -0 -1 -0 -1 -1 -1 -1
-4 -4 -3 -3 -3 -2 -2 -1 -1 -1 -1 -0 -0 -0 -0 -1 -1 -1 -1 -0 -0 -0 0 1 1 2 2 2 2 2 3 3 2 2 2 2 2 2 1 1 1 2 1 1 0 0 0 -0 -1 -0 -1 -1 -1 -2
-4 -3 -3 -3 -2 -2 -1 -1 -1 -0 -0 -0 -0 -0 -0 -0 -1 -1 -1 -0 -0 -1 -0 0 1 1 1 2 2 2 2 2 2 2 2 2 2 1 1 1 0 1 1 1 1 0 -1 -0 -1 -1 -2 -2 -3 -3
-5 -4 -3 -3 -2 -2 -2 -1 -1 -1 -1 -0 -0 -1 -1 -2 -1 -2 -2 -0 -1 -1 -1 1 1 1 1 1 1 1 1 2 2 2 2 2 1 1 0 1 1 1 0 0 0 -0 -1 -1 -2 -2 -3 -3 -4 -4
-4 -5 -5 -5 -4 -2 -2 -2 -1 -1 -1 -1 -1 -1 -1 -2 -2 -2 -2 -2 -1 -2 -1 0 1 1 1 1 1 1 1 1 1 1 1 1 1 0 1 1 0 0 -0 -1 -1 -1 -2 -2 -2 -3 -4 -4 -4 -4
-4 -4 -4 -4 -4 -3 -2 -2 -2 -2 -1 -1 -1 -2 -2 -2 -2 -1 -2 -3 -3 -1 1 2 2 1 1 1 1 1 1 1 1 1 1 1 1 1 1 0 0 -0 -1 -1 -2 -2 -3 -3 -3 -4 -4 -5 -5 -6
-4 -4 -4 -3 -3 -3 -3 -3 -2 -2 -2 -2 -2 -2 -2 -2 -2 -2 -2 -2 -2 -0 1 2 2 2 2 1 1 1 1 1 0 1 0 -0 -0 0 0 -0 -0 -1 -1 -2 -3 -3 -4 -4 -5 -5 -5 -6 -6 -7
-4 -4 -4 -3 -3 -3 -3 -3 -3 -3 -3 -3 -3 -3 -3 -3 -3 -2 -1 -1 -0 1 1 1 2 2 2 1 1 1 0 0 0 -0 -1 -1 -1 -1 -1 -1 -2 -3 -3 -4 -4 -5 -5 -6 -6 -6 -7 -8 -8 -9
-3 -3 -4 -3 -4 -3 -4 -4 -3 -3 -3 -2 -2 -3 -3 -2 -2 -1 -0 0 1 1 1 1 1 1 1 1 0 -0 -0 -0 -1 -2 -2 -2 -1 -2 -2 -3 -5 -6 -6 -6 -6 -6 -7 -7 -7 -8 -8 -9 -9 -9
-4 -4 -3 -3 -3 -4 -4 -3 -3 -3 -2 -2 -2 -3 -3 -2 -1 -1 -0 0 0 1 1 1 1 0 1 -0 -1 -1 -2 -3 -3 -4 -4 -1 -2 -3 -4 -5 -6 -6 -7 -7 -7 -8 -8 -8 -8 -9 -9 -9 -10 -10
-3 -4 -4 -4 -4 -4 -4 -4 -4 -4 -3 -3 -3 -3 -3 -2 -2 -1 -1 -0 -0 0 0 0 -0 -1 -1 -2 -2 -2 -3 -4 -5 -5 -4 -4 -5 -5 -6 -7 -7 -7 -8 -8 -8 -8 -9 -9 -9 -10 -10 -10 -11 -11
-5 -4 -4 -4 -4 -4 -4 -4 -4 -4 -4 -4 -4 -4 -3 -3 -3 -2 -2 -2 -1 -1 -1 -2 -2 -2 -3 -3 -3 -4 -4 -5 -5 -4 -5 -5 -6 -7 -7 -8 -8 -8 -9 -9 -9 -10 -10 -10 -11 -11 -11 -11 -12 -12
-6 -5 -6 -5 -5 -4 -4 -4 -4 -4 -4 -5 -5 -5 -4 -4 -4 -4 -4 -4 -4 -4 -4 -4 -4 -4 -4 -5 -5 -5 -6 -6 -6 -6 -7 -7 -7 -8 -8 -9 -9 -9 -9 -10 -10 -11 -11 -11 -11 -12 -12 -12 -13 -13
-5 -5 -5 -5 -5 -6 -6 -5 -5 -7 -7 -7 -6 -6 -6 -6 -5 -5 -5 -5 -5 -5 -5 -5 -5 -6 -6 -7 -7 -7 -7 -7 -7 -7 -7 -8 -8 -9 -9 -9 -10 -10 -10 -11 -11 -12 -12 -12 -12 -12 -13 -13 -14 -14
-6 -6 -6 -6 -5 -6 -5 -5 -5 -7 -7 -7 -7 -6 -6 -6 -6 -6 -6 -6 -6 -6 -6 -6 -7 -7 -8 -7 -8 -8 -8 -8 -8 -8 -8 -9 -9 -10 -10 -10 -10 -11 -11 -12 -12 -12 -12 -13 -13 -13 -14 -14 -14 -14
-6 -6 -6 -6 -6 -5 -5 -6 -6 -7 -9 -9 -8 -8 -7 -7 -7 -7 -7 -7 -7 -7 -7 -7 -8 -8 -8 -8 -8 -8 -8 -9 -9 -9 -9 -10 -10 -10 -11 -11 -11 -12 -12 -12 -12 -12 -13 -13 -14 -14 -14 -14 -14 -14
-6 -6 -5 -5 -5 -5 -5 -6 -6 -7 -8 -8 -8 -8 -8 -8 -8 -8 -8 -8 -8 -8 -8 -8 -9 -9 -9 -9 -9 -9 -10 -10 -11 -10 -10 -10 -11 -11 -11 -12 -12 -12 -12 -13 -13 -13 -14 -14 -15 -15 -15 -15 -15 -15
-6 -6 -6 -6 -5 -5 -6 -6 -7 -7 -8 -9 -9 -9 -9 -9 -9 -9 -8 -9 -9 -9 -9 -9 -9 -9 -10 -10 -10 -10 -11 -11 -11 -11 -11 -11 -11 -11 -12 -12 -13 -13 -13 -14 -14 -14 -15 -15 -15 -15 -15 -15 -15 -16
-6 -6 -6 -6 -6 -7 -8 -8 -9 -9 -9 -10 -10 -10 -10 -10 -10 -10 -10 -11 -11 -11 -11 -11 -11 -11 -11 -11 -11 -11 -11 -11 -11 -11 -11 -11 -12 -12 -12 -13 -13 -14 -14 -15 -15 -15 -15 -15 -15 -15 -16 -16 -16 -17
-6 -6 -7 -7 -9 -10 -10 -10 -10 -10 -11 -11 -11 -11 -11 -11 -11 -11 -12 -12 -12 -12 -12 -12 -12 -12 -12 -12 -12 -12 -12 -12 -12 -13 -13 -13 -13 -14 -14 -15 -15 -15 -15 -15 -15 -16 -16 -16 -16 -16 -17 -17 -18 -18
-8 -9 -9 -10 -11 -11 -11 -11 -11 -11 -11 -11 -11 -12 -12 -11 -12 -12 -12 -12 -12 -12 -12 -12 -12 -12 -13 -13 -13 -13 -13 -13 -13 -14 -14 -14 -14 -15 -15 -15 -15 -16 -16 -16 -16 -16 -17 -17 -17 -18 -18 -18 -18 -19
-9 -11 -11 -11 -11 -11 -11 -11 -11 -11 -11 -12 -12 -12 -12 -12 -12 -13 -13 -12 -12 -12 -13 -13 -13 -13 -14 -14 -14 -14 -14 -14 -14 -15 -15 -15 -15 -15 -16 -16 -16 -16 -17 -17 -17 -18 -18 -18 -18 -19 -19 -19 -19 -20
-11 -12 -11 -11 -11 -11 -12 -12 -12 -12 -12 -13 -13 -13 -13 -13 -13 -13 -13 -13 -13 -13 -13 -14 -14 -14 -14 -14 -15 -15 -15 -15 -15 -15 -15 -16 -16 -16 -17 -17 -17 -17 -18 -18 -18 -18 -19 -19 -19 -19 -19 -20 -20 -20
-12 -12 -12 -12 -12 -12 -12 -13 -13 -13 -13 -13 -13 -13 -13 -13 -13 -14 -14 -14 -14 -14 -14 -14 -14 -15 -15 -15 -15 -15 -15 -16 -16 -16 -16 -17 -17 -17 -18 -18 -19 -19 -19 -19 -19 -19 -20 -20 -20 -20 -20 -20 -21 -21
-12 -13 -12 -13 -12 -13 -13 -13 -13 -13 -13 -13 -14 -13 -13 -14 -14 -14 -14 -14 -15 -15 -15 -15 -15 -15 -15 -16 -16 -16 -16 -17 -17 -17 -18 -18 -18 -19 -19 -19 -19 -19 -20 -20 -20 -20 -20 -20 -20 -21 -21 -21 -22 -22
-13 -13 -13 -13 -13 -13 -13 -13 -13 -13 -14 -14 -14 -14 -14 -14 -15 -15 -15 -15 -15 -15 -16 -16 -16 -16 -16 -17 -17 -17 -18 -18 -18 -19 -19 -19 -20 -20 -20 -20 -20 -20 -20 -21 -21 -21 -21 -21 -22 -22 -22 -22 -22 -23
-13 -13 -13 -13 -13 -13 -13 -14 -14 -14 -14 -14 -15 -15 -15 -15 -16 -16 -16 -16 -16 -16 -16 -17 -17 -17 -18 -18 -18 -19 -19 -19 -20 -20 -20 -20 -21 -21 -21 -21 -21 -21 -21 -21 -22 -22 -22 -22 -23 -23 -23 -23 -23 -23
-13 -13 -14 -14 -14 -14 -14 -15 -15 -15 -15 -15 -15 -15 -16 -16 -16 -16 -16 -17 -17 -17 -18 -18 -18 -19 -19 -19 -20 -20 -20 -21 -21 -21 -21 -21 -21 -22 -22 -22 -22 -22 -22 -22 -23 -23 -23 -23 -24 -24 -24 -24 -24 -24
-14 -14 -14 -15 -15 -15 -15 -16 -16 -16 -15 -15 -16 -16 -16 -17 -17 -17 -17 -18 -18 -18 -19 -19 -19 -20 -20 -21 -21 -21 -21 -21 -21 -22 -22 -22 -22 -23 -23 -23 -23 -23 -23 -24 -24 -24 -24 -24 -25 -25 -25 -25 -25 -25
Height
2786 2794 2802 2811 2818 2825 2833 2840 2846 2867 2876 2889 2905 2920 2938 2955 2973 2983 2996 3003 3014 3021 3025 3031 3039 3043 3048 3053 3056 3060 3067 3068 3072 3076 3079 3081 3082 3083 3085 3086 3085 3086 3086 3086 3087 3088 3087 3083 3084 3087 3086 3084 3083 3080
2790 2796 2803 2809 2816 2826 2838 2848 2858 2867 2883 2903 2916 2930 2944 2960 2973 2985 2995 3004 3013 3020 3022 3028 3030 3036 3043 3051 3058 3059 3065 3066 3069 3074 3076 3077 3079 3080 3081 3083 3082 3085 3084 3085 3086 3085 3082 3081 3081 3080 3079 3078 3077 3074
2795 2802 2809 2817 2825 2833 2845 2859 2868 2883 2897 2910 2924 2937 2951 2963 2975 2985 2996 3005 3011 3016 3022 3027 3029 3033 3039 3044 3047 3057 3059 3062 3066 3069 3072 3073 3075 3077 3078 3078 3079 3079 3079 3080 3080 3081 3079 3078 3076 3074 3073 3071 3070 3069
2809 2815 2823 2831 2839 2847 2856 2867 2880 2895 2907 2919 2931 2943 2956 2967 2977 2987 2997 3004 3010 3014 3019 3021 3027 3029 3035 3040 3046 3051 3056 3061 3064 3066 3067 3069 3072 3073 3074 3075 3076 3077 3076 3076 3075 3075 3075 3074 3072 3068 3068 3066 3064 3062
2826 2830 2836 2845 2854 2863 2874 2884 2895 2906 2916 2927 2938 2949 2959 2970 2979 2987 2996 3003 3008 3015 3016 3020 3024 3028 3032 3037 3043 3048 3053 3057 3059 3061 3063 3065 3067 3069 3069 3071 3071 3072 3073 3071 3071 3071 3069 3070 3065 3062 3061 3059 3057 3055
2841 2848 2856 2864 2871 2879 2887 2896 2905 2914 2923 2932 2943 2953 2962 2972 2981 2989 2996 3001 3005 3010 3013 3016 3020 3024 3029 3034 3040 3044 3048 3052 3054 3056 3059 3060 3062 3065 3065 3066 3066 3066 3065 3065 3065 3064 3063 3061 3056 3057 3054 3053 3050 3048
2858 2863 2868 2877 2884 2891 2898 2905 2913 2921 2929 2938 2947 2956 2966 2976 2984 2990 2997 3000 3004 3007 3011 3015 3019 3022 3028 3033 3036 3041 3045 3048 3051 3052 3054 3056 3058 3059 3059 3061 3060 3060 3060 3057 3057 3057 3056 3055 3050 3050 3048 3046 3044 3040
2873 2876 2881 2887 2894 2900 2906 2912 2919 2926 2934 2942 2951 2959 2968 2977 2985 2990 2994 2997 3002 3005 3009 3013 3014 3021 3024 3028 3033 3037 3042 3044 3046 3048 3050 3051 3053 3053 3054 3054 3054 3054 3053 3049 3050 3049 3049 3046 3045 3043 3041 3038 3036 3033
2886 2889 2896 2900 2904 2910 2915 2920 2926 2933 2940 2947 2955 2964 2972 2979 2984 2989 2995 2996 2997 3003 3007 3009 3011 3015 3021 3025 3030 3035 3038 3040 3042 3042 3045 3047 3046 3046 3047 3047 3047 3046 3045 3043 3042 3041 3040 3039 3037 3035 3033 3031 3029 3026
2898 2901 2907 2911 2915 2919 2925 2929 2934 2939 2946 2952 2959 2966 2974 2980 2984 2987 2992 2997 3002 3005 3005 3006 3009 3012 3019 3023 3028 3033 3034 3036 3036 3039 3040 3038 3038 3040 3041 3041 3039 3038 3038 3036 3035 3034 3032 3031 3030 3028 3026 3024 3022 3019
2912 2913 2915 2920 2923 2928 2932 2937 2941 2946 2951 2956 2961 2966 2972 2978 2984 2987 2990 2995 2997 3000 3003 3005 3009 3012 3017 3021 3024 3027 3028 3029 3030 3032 3033 3030 3029 3032 3033 3033 3031 3030 3030 3029 3028 3027 3026 3025 3024 3022 3021 3018 3017 3015
2919 2922 2925 2928 2931 2932 2938 2941 2947 2951 2956 2961 2963 2968 2975 2981 2984 2988 2989 2992 2995 2999 3000 3004 3008 3011 3014 3017 3019 3022 3023 3025 3023 3025 3025 3021 3021 3025 3025 3024 3024 3023 3022 3022 3021 3021 3021 3020 3019 3017 3016 3014 3013 3011
2924 2926 2929 2933 2936 2939 2943 2946 2949 2953 2957 2963 2967 2973 2978 2982 2984 2985 2986 2990 2991 2994 2998 3001 3005 3008 3011 3014 3016 3018 3018 3018 3018 3017 3015 3013 3017 3016 3016 3017 3018 3017 3017 3017 3017 3017 3017 3016 3014 3013 3012 3010 3009 3007
2927 2930 2933 2935 2937 2941 2945 2948 2950 2954 2958 2962 2966 2971 2977 2978 2979 2981 2983 2987 2990 2994 2996 2999 3002 3004 3006 3009 3010 3012 3011 3012 3010 3010 3007 3009 3009 3010 3011 3012 3013 3013 3013 3013 3013 3013 3013 3012 3011 3010 3008 3006 3005 3003
2928 2930 2933 2937 2938 2941 2945 2949 2952 2957 2960 2964 2967 2969 2972 2974 2976 2979 2982 2986 2988 2990 2993 2996 2998 3001 3002 3004 3005 3006 3006 3005 3004 3002 3002 3003 3004 3006 3007 3008 3009 3009 3010 3010 3010 3010 3009 3009 3007 3006 3004 3003 3001 2999
2931 2932 2934 2937 2940 2943 2946 2949 2953 2956 2958 2961 2964 2967 2970 2972 2974 2977 2979 2982 2985 2987 2989 2992 2994 2996 2997 2999 2999 2998 3000 2998 2997 2998 2999 3000 3001 3003 3004 3005 3006 3007 3007 3007 3007 3006 3005 3004 3002 3001 2999 2998 2996 2993
2936 2939 2938 2940 2942 2945 2947 2950 2953 2955 2958 2960 2963 2966 2968 2970 2973 2975 2978 2980 2982 2984 2986 2989 2990 2992 2992 2993 2993 2993 2994 2994 2995 2996 2997 2999 3000 3001 3002 3003 3004 3004 3004 3003 3003 3002 3000 2999 2998 2996 2993 2991 2989 2986
2942 2943 2943 2944 2946 2947 2949 2950 2952 2956 2960 2962 2965 2968 2969 2971 2972 2975 2977 2978 2981 2982 2984 2986 2988 2988 2989 2990 2991 2991 2992 2992 2993 2994 2996 2997 2998 2999 2999 3000 3000 3000 3000 2999 2998 2997 2995 2994 2992 2990 2987 2985 2982 2979
2947 2948 2948 2949 2950 2952 2953 2955 2956 2959 2963 2965 2967 2969 2971 2972 2974 2976 2977 2979 2981 2983 2985 2986 2987 2988 2989 2990 2990 2991 2991 2992 2992 2993 2993 2994 2995 2996 2996 2996 2995 2995 2995 2994 2993 2991 2989 2987 2985 2983 2981 2978 2975 2971
2953 2953 2954 2954 2954 2955 2955 2958 2959 2960 2964 2967 2968 2970 2972 2973 2975 2977 2979 2980 2982 2983 2984 2986 2986 2987 2988 2988 2989 2990 2990 2990 2991 2991 2991 2992 2992 2992 2991 2991 2991 2990 2989 2988 2987 2985 2983 2981 2979 2976 2974 2970 2967 2962
2957 2957 2957 2957 2957 2958 2959 2960 2961 2964 2966 2968 2970 2972 2973 2975 2976 2978 2979 2980 2982 2982 2983 2984 2985 2985 2985 2986 2986 2987 2988 2988 2988 2988 2988 2987 2988 2987 2986 2986 2985 2984 2983 2982 2980 2978 2976 2974 2972 2969 2966 2962 2957 2952
2959 2959 2958 2958 2959 2959 2961 2962 2964 2965 2968 2969 2971 2972 2973 2974 2975 2976 2977 2978 2979 2980 2981 2981 2981 2981 2981 2982 2982 2983 2983 2983 2984 2984 2983 2982 2981 2981 2981 2980 2979 2978 2977 2976 2974 2972 2970 2967 2965 2961 2957 2952 2947 2941
2959 2959 2958 2958 2960 2961 2964 2964 2965 2966 2968 2969 2971 2972 2972 2973 2974 2975 2975 2976 2977 2978 2978 2978 2978 2978 2977 2977 2978 2978 2978 2979 2979 2978 2977 2976 2975 2975 2975 2974 2973 2972 2971 2970 2968 2965 2962 2959 2955 2951 2946 2941 2936 2931
2958 2958 2958 2959 2960 2962 2964 2964 2965 2966 2968 2969 2971 2972 2973 2973 2974 2974 2975 2975 2976 2976 2976 2975 2975 2974 2974 2973 2973 2974 2974 2973 2972 2972 2972 2971 2971 2970 2970 2969 2968 2967 2965 2963 2960 2956 2953 2949 2945 2940 2935 2930 2926 2921
2960 2960 2962 2961 2963 2966 2966 2967 2967 2968 2970 2971 2971 2972 2973 2973 2973 2974 2974 2975 2974 2974 2973 2972 2972 2971 2971 2970 2970 2970 2970 2970 2970 2969 2968 2967 2967 2966 2965 2964 2962 2960 2957 2953 2950 2946 2942 2938 2934 2930 2925 2921 2916 2912
2959 2961 2963 2964 2966 2967 2968 2969 2970 2970 2971 2971 2972 2973 2973 2973 2973 2974 2974 2973 2973 2972 2971 2970 2969 2968 2968 2968 2968 2968 2968 2967 2966 2965 2964 2963 2961 2960 2958 2956 2953 2951 2947 2944 2940 2937 2932 2928 2924 2920 2916 2912 2907 2903
2963 2965 2966 2967 2967 2969 2970 2970 2971 2971 2971 2972 2972 2972 2972 2973 2973 2973 2972 2971 2971 2970 2969 2968 2967 2967 2966 2966 2965 2965 2964 2963 2961 2960 2958 2956 2955 2952 2950 2947 2944 2941 2937 2934 2930 2927 2923 2919 2915 2911 2907 2903 2899 2894
2967 2967 2968 2969 2969 2970 2970 2971 2971 2972 2972 2972 2972 2972 2972 2972 2972 2971 2970 2969 2968 2967 2967 2966 2965 2964 2963 2962 2961 2960 2958 2957 2955 2953 2951 2949 2946 2944 2942 2939 2936 2932 2929 2924 2921 2917 2913 2910 2906 2902 2898 2894 2890 2887
2970 2971 2972 2971 2972 2972 2972 2972 2972 2972 2972 2971 2971 2970 2970 2969 2968 2967 2967 2966 2965 2964 2963 2962 2961 2960 2958 2957 2955 2954 2952 2950 2948 2945 2943 2941 2938 2936 2933 2930 2926 2922 2919 2915 2911 2908 2904 2900 2897 2893 2890 2886 2883 2879
2973 2973 2973 2973 2972 2972 2972 2971 2970 2970 2969 2968 2967 2967 2966 2965 2964 2963 2962 2961 2960 2959 2957 2956 2955 2953 2952 2950 2948 2947 2945 2943 2940 2939 2936 2933 2930 2927 2923 2920 2916 2913 2909 2905 2902 2898 2894 2891 2888 2884 2881 2878 2875 2871
2974 2973 2973 2972 2971 2970 2969 2968 2967 2966 2965 2964 2963 2962 2961 2960 2958 2957 2956 2955 2954 2952 2951 2949 2948 2946 2945 2943 2941 2940 2938 2936 2933 2931 2928 2925 2921 2918 2914 2911 2907 2903 2900 2896 2893 2889 2886 2882 2879 2876 2873 2870 2867 2864
2973 2972 2971 2969 2968 2967 2966 2965 2963 2962 2961 2960 2958 2957 2955 2954 2952 2951 2950 2948 2947 2946 2944 2943 2942 2940 2938 2937 2935 2933 2930 2928 2925 2923 2920 2916 2912 2908 2905 2901 2897 2894 2890 2886 2883 2880 2877 2874 2871 2868 2866 2863 2860 2857
2970 2968 2967 2965 2964 2963 2962 2962 2959 2958 2957 2955 2953 2951 2950 2949 2947 2947 2945 2943 2943 2941 2940 2938 2936 2935 2933 2931 2929 2926 2924 2921 2917 2914 2910 2907 2903 2899 2895 2891 2887 2884 2880 2877 2874 2871 2868 2866 2863 2861 2858 2855 2853 2850
Wind_Speed
38 35 35 36 35 33 32 32 44 63 39 62 68 65 66 62 59 45 38 34 27 21 20 24 20 24 26 26 26 27 22 21 20 19 16 9 9 9 8 7 6 6 5 6 7 6 7 9 5 2 7 14 19 22
35 37 37 36 35 39 38 47 51 45 62 62 61 62 61 57 53 45 37 33 31 20 20 23 28 28 27 24 21 24 20 19 18 13 13 10 10 9 10 6 9 5 9 5 7 4 10 10 15 13 21 23 22 23
26 35 37 28 38 44 57 57 58 63 58 57 59 59 57 54 51 45 37 34 30 26 19 17 25 24 27 33 36 26 27 22 19 18 15 13 11 9 11 10 10 13 12 12 12 5 9 11 17 18 18 17 18 20
44 47 51 57 58 52 49 50 52 54 56 57 56 55 53 50 48 38 33 33 26 26 24 21 22 27 28 29 36 29 26 22 21 20 21 20 15 13 15 14 13 11 14 12 14 16 13 11 10 12 18 21 23 23
47 49 49 50 49 49 49 48 49 51 52 52 52 51 49 46 45 34 32 30 26 23 19 23 23 24 24 29 31 29 27 24 21 21 20 17 16 17 17 16 14 15 11 13 10 11 16 12 17 25 24 25 26 26
48 48 48 45 42 41 43 43 44 44 45 46 47 47 46 44 43 36 35 33 32 32 14 22 27 29 23 25 27 27 24 23 23 22 18 17 16 15 10 12 11 16 16 17 17 21 21 22 28 26 26 26 28 29
47 46 44 43 40 38 38 39 41 41 42 42 43 43 42 41 42 38 24 32 31 27 13 15 25 29 26 26 26 23 24 24 24 19 17 16 14 16 16 13 14 17 19 24 24 23 22 23 26 25 26 28 31 32
42 41 42 43 37 34 34 33 35 37 38 39 41 42 42 46 41 31 24 29 38 21 14 14 18 29 30 30 29 28 24 20 18 17 17 16 16 17 15 18 21 22 23 27 25 25 25 26 25 27 29 29 29 31
36 42 37 33 35 35 34 33 34 35 37 39 40 41 43 43 31 30 23 25 24 15 8 13 22 28 32 31 29 24 21 19 16 19 19 19 20 15 19 20 22 24 26 28 28 28 28 28 27 25 23 25 27 28
31 33 31 34 35 32 35 35 37 36 37 39 42 45 43 36 27 22 24 12 13 12 7 12 20 18 29 29 26 21 20 20 15 20 22 24 27 27 26 27 30 30 28 27 26 24 23 23 22 23 23 23 20 16
21 16 23 27 29 31 34 34 31 29 31 34 40 41 41 35 23 23 11 14 12 10 13 15 18 16 18 24 24 21 15 12 14 17 19 19 24 24 24 27 28 27 24 21 21 22 20 19 17 15 15 15 14 15
13 11 13 13 16 28 26 33 32 30 28 22 23 27 29 24 12 6 10 10 9 14 15 18 17 16 18 20 19 21 16 10 10 16 16 16 25 22 25 25 24 21 21 16 11 9 9 11 12 13 14 15 15 16
8 7 9 11 16 17 23 24 25 31 28 29 31 24 17 12 13 9 12 15 13 16 19 19 21 21 19 20 20 14 10 14 17 11 15 24 22 23 20 17 15 13 12 8 7 9 10 11 12 13 14 15 16 17
8 9 10 9 11 18 19 25 26 29 30 28 23 15 9 8 9 9 17 18 16 16 14 16 18 20 22 20 17 8 12 11 8 11 18 22 18 15 13 11 12 10 8 9 9 10 12 13 14 15 16 18 18 18
4 5 6 9 10 11 18 23 24 23 22 19 9 9 12 9 11 14 16 16 16 18 17 20 24 23 19 11 9 10 6 7 8 10 17 12 11 10 12 11 10 10 10 11 11 13 15 15 16 17 18 18 19 20
8 2 3 7 8 10 13 20 22 21 21 10 9 9 14 13 11 11 13 16 16 17 19 18 16 10 11 8 9 10 7 7 10 11 9 8 11 13 12 11 11 10 11 13 14 15 16 17 18 20 20 21 21 21
15 11 14 10 8 11 12 13 14 15 8 8 10 11 12 14 14 13 12 14 15 16 14 11 8 10 7 8 8 9 8 8 6 3 1 4 10 12 11 11 11 13 14 15 16 16 18 20 22 22 22 22 23 24
8 8 9 10 12 12 11 7 14 8 15 15 13 10 9 8 8 8 8 8 9 10 12 7 5 5 4 3 2 2 1 3 4 1 6 9 10 11 12 13 14 15 14 16 17 20 21 22 22 22 22 23 24 27
16 13 11 10 10 11 11 8 6 10 12 12 11 9 6 6 6 6 6 6 6 6 6 4 2 2 2 2 1 2 3 3 3 4 5 7 9 12 14 15 15 16 17 19 21 22 22 23 23 24 25 26 29 34
14 13 12 10 9 8 6 9 11 11 15 14 11 9 8 7 7 7 6 5 4 4 4 3 3 3 3 4 5 5 6 7 8 9 9 10 11 13 16 17 17 18 20 21 22 23 24 25 25 26 28 32 36 40
11 9 7 8 6 7 9 8 11 13 14 12 10 7 6 5 5 6 5 5 5 5 5 7 8 9 10 10 9 9 10 11 13 14 15 16 17 18 18 17 19 21 21 22 24 24 25 25 27 30 34 38 42 45
6 5 4 3 2 5 6 6 9 9 10 10 8 6 4 3 2 2 4 6 7 8 9 10 12 13 15 14 14 14 15 16 17 18 21 22 20 20 20 20 20 21 22 23 23 24 26 28 31 36 40 43 45 46
7 5 2 0 2 3 5 6 7 6 6 7 5 4 3 2 2 1 2 1 1 3 5 8 11 13 14 15 16 15 16 18 21 24 28 22 18 18 17 17 19 20 19 21 23 26 30 34 38 41 43 43 43 40
8 4 2 2 4 6 6 6 7 7 7 7 7 7 6 5 5 5 5 3 2 4 6 7 9 11 13 14 16 18 19 20 18 12 7 8 11 12 13 13 15 18 21 25 29 33 36 39 40 41 41 39 37 37
3 4 4 6 6 9 10 11 10 10 8 7 7 5 2 2 1 1 2 2 4 5 7 7 8 10 9 8 7 6 6 7 9 10 11 12 13 14 16 19 22 25 28 31 34 36 37 39 39 37 36 35 36 35
4 5 4 6 8 6 5 5 4 3 3 3 2 1 2 2 1 2 2 5 5 6 7 7 6 4 3 3 6 9 9 9 10 12 13 14 16 20 23 26 29 29 30 32 34 36 38 37 35 33 33 34 34 33
7 8 9 7 4 3 3 2 2 2 3 2 2 1 1 1 1 1 3 5 6 7 6 6 6 7 8 8 9 10 12 14 15 17 19 22 25 27 27 28 29 32 34 35 37 36 34 32 32 32 33 33 33 32
9 7 6 5 4 3 3 2 2 2 2 1 2 2 1 2 4 7 9 10 10 9 9 10 10 12 13 14 15 17 18 20 22 24 26 27 27 27 27 30 31 33 35 36 35 33 32 32 32 32 32 31 30 29
13 11 10 9 7 5 3 3 2 2 3 5 7 8 9 10 11 12 13 13 13 14 15 16 17 18 19 20 21 22 24 25 26 25 26 26 28 30 30 32 34 35 35 35 34 33 32 32 31 30 29 28 28 29
6 5 4 4 4 5 6 7 8 10 12 13 13 14 15 15 16 16 17 17 18 18 19 19 21 22 23 24 24 24 23 23 23 24 25 28 31 33 34 34 35 34 33 32 32 32 31 31 30 29 28 28 29 29
6 6 7 7 8 9 10 11 12 13 13 14 14 15 16 17 18 19 19 19 20 21 22 22 22 22 21 20 21 21 21 22 24 26 28 30 32 33 33 33 33 33 34 33 32 32 31 30 29 28 28 28 28 28
9 10 11 11 12 11 11 11 12 13 14 14 15 15 16 18 19 21 19 18 17 17 17 17 17 17 17 18 20 21 23 25 26 29 31 32 33 33 34 34 34 34 33 32 31 30 29 28 28 27 27 26 26 26
12 12 12 11 12 13 12 13 15 17 16 16 17 17 16 15 15 14 13 13 13 14 15 16 16 17 18 19 21 23 26 30 32 33 34 34 35 35 35 35 34 33 32 30 29 28 27 27 26 26 25 25 25 24
Wind_Direction
167 173 182 182 182 184 176 189 179 174 169 161 166 165 165 168 171 172 173 175 172 173 187 197 194 202 196 195 202 199 204 208 201 202 207 217 224 218 226 228 236 236 225 221 210 231 252 263 287 241 248 280 291 296
167 171 178 175 179 151 147 161 173 152 157 162 161 161 163 167 171 171 169 182 187 185 207 196 199 205 195 199 198 210 217 217 211 199 206 212 218 224 223 237 246 242 229 237 221 275 265 267 286 282 290 291 291 290
126 124 138 123 127 126 150 146 143 151 157 157 160 161 164 168 172 178 180 192 199 196 197 196 207 207 207 204 200 200 203 208 219 220 227 225 226 237 235 246 248 267 269 256 270 279 278 271 288 289 292 297 296 296
112 116 123 128 135 138 131 131 139 148 155 158 161 164 167 169 175 176 178 189 194 205 206 214 203 206 202 204 204 208 218 229 234 234 231 234 242 250 245 246 253 253 275 279 280 289 284 291 301 281 290 292 294 292
115 106 106 117 121 123 134 139 146 153 158 161 163 166 168 171 175 177 181 191 196 189 211 211 206 203 200 198 200 210 223 227 236 225 215 231 248 252 254 260 262 272 271 265 273 269 270 280 266 281 292 289 291 292
108 113 120 123 127 132 138 144 148 153 157 162 165 168 170 172 176 177 181 191 196 204 211 201 200 189 185 193 201 206 214 217 209 215 230 246 250 247 246 248 235 265 268 268 270 274 279 279 278 286 287 289 293 295
113 117 120 123 127 132 139 145 150 155 158 161 163 166 170 174 180 185 194 199 200 199 180 186 188 189 193 191 189 192 201 208 209 222 235 245 245 239 245 250 251 273 278 277 279 280 278 277 282 287 288 290 293 294
106 102 110 109 112 120 130 137 144 148 151 156 160 164 168 174 185 193 201 208 206 181 174 188 185 183 188 191 195 200 202 203 219 235 241 243 240 242 245 257 270 277 276 276 277 278 279 283 285 288 291 292 293 295
114 108 106 107 107 111 122 128 135 143 151 154 158 162 167 176 185 194 199 213 183 152 183 181 199 192 195 195 196 195 204 219 234 239 241 243 246 240 252 266 266 266 263 267 271 276 279 283 286 288 291 292 291 297
107 107 121 117 120 118 121 129 133 137 145 152 157 158 167 175 186 199 175 173 183 197 183 183 188 189 191 196 200 207 221 232 237 243 246 246 249 260 263 266 266 266 267 271 273 272 276 282 286 290 294 298 303 310
118 114 109 139 138 142 137 134 144 149 155 159 165 170 170 180 194 178 174 182 183 196 203 186 179 183 191 205 214 217 225 223 237 242 240 247 253 258 261 263 265 269 275 275 274 276 280 283 288 293 300 306 310 307
136 132 123 120 160 164 149 159 150 143 138 141 150 140 146 159 156 177 176 177 190 194 195 200 200 202 207 209 212 216 223 230 240 246 243 249 258 261 258 256 261 271 280 286 281 274 281 291 298 301 301 300 298 299
155 163 143 132 158 145 155 151 162 170 160 159 144 149 161 166 181 189 190 186 192 191 201 207 210 215 216 222 224 228 228 237 249 244 250 256 267 261 256 254 269 271 287 287 286 290 295 295 295 296 297 299 303 305
169 174 165 152 150 180 191 166 159 169 170 167 164 153 181 181 194 188 185 190 190 189 193 203 213 221 231 228 230 223 234 239 229 243 254 261 260 258 255 249 249 267 272 279 280 281 284 288 291 296 300 304 305 304
160 175 175 177 179 176 193 193 184 175 178 169 170 182 187 183 182 193 193 197 199 204 211 224 228 229 227 214 213 218 216 217 219 232 258 264 241 225 216 225 243 255 258 261 272 280 284 288 292 297 299 300 300 300
86 194 181 189 190 191 185 189 199 204 192 164 167 168 184 188 192 193 197 204 210 219 221 221 222 217 211 210 201 205 213 218 239 234 224 210 189 203 224 235 238 246 258 267 271 276 283 291 297 301 303 302 300 302
89 79 99 138 161 175 168 173 179 181 169 137 143 166 174 184 196 205 206 208 211 217 225 223 213 206 212 211 205 202 208 219 206 193 207 203 209 220 232 234 242 255 263 269 273 280 289 296 299 302 303 302 303 304
96 111 113 118 113 98 97 138 159 93 116 110 112 110 127 153 170 188 198 200 207 206 201 185 167 180 158 151 205 192 236 326 332 277 200 198 207 221 233 247 258 263 268 275 284 290 294 298 300 300 300 301 300 303
79 87 100 112 125 132 131 120 115 126 131 138 142 152 169 176 171 165 166 164 175 184 196 195 194 155 211 250 295 315 306 292 287 283 254 242 242 247 255 262 267 272 275 284 290 294 297 299 299 299 298 300 303 306
78 81 83 88 110 129 101 106 120 126 149 148 156 159 157 163 170 172 177 181 182 186 184 184 197 209 237 257 269 266 259 266 268 263 254 250 258 267 272 276 275 279 287 292 295 298 298 297 296 297 300 302 305 307
57 61 68 81 83 124 113 114 105 124 133 141 143 140 143 156 166 183 200 218 234 242 246 249 254 255 255 255 259 257 254 245 248 258 260 268 271 276 281 281 279 282 285 290 294 294 294 294 297 299 302 304 306 308
26 28 34 47 84 110 110 118 131 132 132 135 138 147 148 164 191 222 230 230 225 235 239 243 247 249 247 244 244 246 247 250 256 260 265 266 265 279 276 273 275 279 287 292 293 293 294 296 298 300 303 306 307 309
0 354 349 260 139 116 111 116 126 138 133 129 134 122 88 82 59 16 130 104 255 273 278 272 269 267 263 253 249 253 263 264 270 267 265 249 254 244 246 265 280 289 291 290 291 293 297 299 301 303 305 307 308 309
346 352 21 77 84 103 116 124 130 126 114 123 116 111 95 84 82 91 97 86 347 308 299 292 292 292 285 276 259 259 261 266 257 224 243 273 288 292 288 287 289 289 291 294 297 298 300 301 303 305 307 308 309 310
22 37 82 87 92 108 102 96 98 102 106 115 123 122 85 46 49 125 82 345 319 311 309 297 289 295 296 293 294 264 233 251 289 305 312 311 308 304 301 298 297 297 298 298 299 301 303 305 306 307 307 309 310 311
75 69 85 102 109 107 108 113 91 96 123 137 133 174 302 300 170 165 353 345 337 326 312 305 302 301 291 268 273 282 283 288 297 301 300 300 300 299 299 299 299 299 299 301 303 305 306 306 307 307 308 310 311 311
81 88 86 88 97 100 103 106 91 111 122 120 74 42 42 73 227 214 327 330 329 325 317 299 284 283 288 288 286 285 288 291 293 295 298 300 301 301 302 303 302 302 303 304 305 306 307 307 307 307 308 309 310 311
83 82 79 81 88 98 101 105 113 113 122 111 358 339 278 235 266 288 299 302 299 295 291 288 285 284 285 287 289 290 292 293 295 297 298 299 301 300 300 300 301 302 305 306 307 307 307 306 306 307 309 310 311 310
80 77 74 68 61 57 48 24 338 312 300 297 294 291 285 281 282 288 291 291 290 289 287 285 284 283 284 285 288 292 294 296 298 299 299 300 301 302 303 305 307 308 307 306 306 304 304 305 306 308 309 309 309 310
57 34 16 358 341 319 306 297 290 286 286 289 287 282 279 279 281 283 286 287 286 284 282 282 282 283 285 288 291 292 293 294 295 297 299 302 304 306 306 307 306 306 306 307 307 306 306 306 306 307 307 308 309 311
2 345 330 319 307 300 295 293 292 293 293 291 290 289 287 284 282 284 285 285 285 285 284 283 285 286 288 290 291 294 296 298 300 302 303 304 305 306 307 307 307 307 307 306 305 305 304 305 305 305 305 306 309 311
323 319 312 306 303 299 297 297 300 304 306 303 299 294 290 287 287 289 292 290 288 288 289 291 292 293 296 298 299 300 302 303 304 305 306 307 307 307 307 307 307 307 306 305 305 304 303 303 303 303 304 306 308 310
327 322 318 316 311 310 305 302 304 305 304 302 298 294 291 290 292 298 298 297 298 301 301 301 301 300 300 301 302 304 305 306 307 307 307 306 306 306 306 306 305 305 304 304 304 303 303 302 301 301 302 305 307 309